[[{"header":{"parameterUnit":"m.s-1","parameterCategory":1,"la1":30.2991,"la2":30.254,"lo1":-89.0895,"lo2":-89.0444,"dy":0.0017,"dx":0.0017,"nx":28,"ny":28,"refTime":"2025-01-22T03:00:00:Z","depth":0,"parameterNumber":2,"parameterNumberName":"U-component_of_WINDS"},"data":[0,0,0,0,0,0,0,0,0,0,0,0,0,0,0,0,0,0,0,0,0,0,0,0,0,0,0,0,0,0,0,0,0,0,0,0,0,0,0,0,0,0,0,0,0,0,0,0,0,0,0,0,0,0,0,0,0,0,-1.0845,-1.0846,0,-1.0947,-1.0948,-1.095,-1.1005,-1.1005,-1.1005,-1.1005,-1.1109,-1.1112,-1.1114,0,0,0,0,0,0,0,0,0,0,0,0,0,-1.0698,-1.0701,-1.0845,-1.0846,-1.0848,-1.0947,-1.0948,-1.095,-1.1005,-1.1005,-1.1005,-1.1005,-1.1108,-1.1111,-1.1114,0,0,0,0,0,0,0,0,0,0,0,0,0,-1.0777,-1.0702,-1.0845,-1.0887,-1.0892,-1.0947,-1.0948,-1.095,-1.1005,-1.1005,-1.1005,-1.1005,-1.1107,-1.1111,-1.1115,-1.1136,0,0,-1.1127,-1.1129,0,0,0,0,0,0,0,0,-1.0773,-1.0783,-1.088,-1.0884,-1.089,-1.0963,-1.0935,-1.1012,-1.1004,-1.0962,-1.1005,-1.1005,-1.106,-1.1068,-1.1087,-1.1141,-1.1145,-1.1127,-1.113,-1.1132,-1.1133,0,0,0,0,0,0,0,-1.0767,-1.0779,-1.0886,-1.0881,-1.0887,-1.0901,-1.0912,-1.095,-1.1009,-1.0965,-1.097,-1.0981,-1.1063,-1.1083,-1.109,-1.1147,-1.1127,-1.1131,-1.1133,-1.1135,-1.1223,-1.1223,0,0,0,0,0,0,-1.0755,-1.0774,-1.0882,-1.0889,-1.0831,-1.0903,-1.0916,-1.094,-1.1008,-1.1019,-1.0981,-1.0983,-1.1076,-1.1085,-1.1094,-1.1123,-1.1132,-1.1135,-1.1138,-1.1223,-1.1223,-1.1223,0,0,0,0,0,0,-1.0752,-1.0764,-1.0878,-1.0832,-1.0848,-1.0906,-1.0931,-1.0941,-1.0961,-1.102,-1.1031,-1.099,-1.1077,-1.1088,-1.1125,-1.1127,-1.1137,-1.1141,-1.1223,-1.1223,-1.1223,-1.1182,0,0,0,0,0,0,-1.0747,-1.0763,-1.0771,-1.0832,-1.085,-1.0908,-1.0932,-1.0943,-1.0968,-1.0972,-1.1032,-1.1042,-1.1078,-1.1119,-1.1129,-1.1133,-1.1144,-1.1223,-1.1223,-1.1223,-1.1183,-1.118,-1.1178,0,0,0,0,0,-1.0742,-1.0755,-1.0771,-1.0784,-1.0862,-1.0908,-1.0918,-1.0959,-1.0968,-1.0977,-1.1015,-1.104,-1.1126,-1.1122,-1.1134,-1.1139,-1.1224,-1.1223,-1.1223,-1.1184,-1.1181,-1.1178,0,0,0,0,0,0,-1.0692,-1.0764,-1.0782,-1.0816,-1.0855,-1.0917,-1.0929,-1.0954,-1.0992,-1.0994,-1.1043,-1.1056,-1.1089,-1.1118,-1.1113,-1.1164,-1.1177,-1.1179,-1.1143,-1.114,-1.1138,-1.113,-1.1147,0,0,0,0,0,-1.0685,-1.0716,-1.0777,-1.0801,-1.082,-1.0871,-1.0893,-1.0921,-1.0964,-1.0981,-1.1021,-1.1062,-1.1098,-1.1121,-1.1158,-1.1188,-1.1202,-1.1197,-1.1194,-1.1192,-1.1193,-1.1212,-1.1211,-1.1223,-1.1223,-1.1223,0,0,-1.0671,-1.0714,-1.0731,-1.0792,-1.0826,-1.0857,-1.0885,-1.0917,-1.0941,-1.0986,-1.1023,-1.1054,-1.1103,-1.1137,-1.1154,-1.1162,-1.1193,-1.1192,-1.1189,-1.1192,-1.1212,-1.1211,-1.1209,-1.1223,-1.1223,-1.1223,0,0,-1.0661,-1.0697,-1.0721,-1.0754,-1.0805,-1.084,-1.0845,-1.0903,-1.0926,-1.0965,-1.0999,-1.1028,-1.1089,-1.1123,-1.1148,-1.1152,-1.1176,-1.1162,-1.1148,-1.1166,-1.1165,-1.1164,-1.1166,-1.1165,-1.1163,-1.1163,-1.1163,0,-1.0637,-1.0686,-1.073,-1.076,-1.0786,-1.0829,-1.0853,-1.0884,-1.0944,-1.0961,-1.097,-1.1048,-1.1084,-1.1126,-1.1127,-1.1146,-1.1154,-1.1155,-1.1161,-1.1161,-1.1161,-1.1163,-1.1164,-1.1161,-1.1161,-1.1162,-1.1162,0,-1.0654,-1.0687,-1.07,-1.0758,-1.0785,-1.0813,-1.0861,-1.0884,-1.091,-1.0943,-1.0982,-1.1026,-1.1073,-1.1085,-1.1111,-1.1132,-1.1135,-1.1152,-1.1166,-1.1157,-1.116,-1.1161,-1.1158,-1.1159,-1.116,-1.116,0,0,-1.0615,-1.0697,-1.0701,-1.0728,-1.0788,-1.0815,-1.0844,-1.089,-1.0909,-1.0949,-1.0975,-1.1026,-1.1042,-1.1071,-1.11,-1.1116,-1.1116,-1.1131,-1.1133,-1.1127,-1.1142,-1.1129,-1.113,-1.1133,-1.1133,-1.1134,-1.1138,0,-1.0614,-1.0669,-1.0709,-1.0749,-1.078,-1.0822,-1.0847,-1.0887,-1.0919,-1.095,-1.0986,-1.1022,-1.104,-1.1057,-1.1074,-1.1112,-1.112,-1.1113,-1.1158,-1.1159,-1.1144,-1.1131,-1.1117,-1.112,-1.114,-1.114,-1.114,0,-1.062,-1.0659,-1.0702,-1.0759,-1.0774,-1.0796,-1.0842,-1.0871,-1.0917,-1.0939,-1.0971,-1.1002,-1.1035,-1.1047,-1.1094,-1.1088,-1.1109,-1.113,-1.1131,-1.1137,-1.1149,-1.1136,-1.1121,-1.1122,-1.1142,-1.1142,-1.1142,0,-1.0588,-1.0651,-1.0685,-1.0707,-1.0774,-1.0789,-1.0818,-1.0864,-1.0889,-1.0929,-1.0946,-1.0989,-1.1013,-1.1045,-1.1087,-1.1092,-1.1129,-1.1144,-1.1149,-1.1148,-1.1155,-1.1154,-1.1143,-1.1168,-1.1168,-1.1168,-1.1168,0,-1.0582,-1.0607,-1.0672,-1.0692,-1.0721,-1.0768,-1.0795,-1.0827,-1.0868,-1.0896,-1.0934,-1.096,-1.1014,-1.1046,-1.1078,-1.1112,-1.1122,-1.1142,-1.115,-1.1138,-1.1136,-1.1153,-1.1153,-1.1168,-1.1168,-1.1168,-1.1168,0,-1.0551,-1.0596,-1.0635,-1.0696,-1.0712,-1.073,-1.0783,-1.0805,-1.0839,-1.0874,-1.0885,-1.0939,-1.0978,-1.1023,-1.1078,-1.11,-1.1132,-1.1144,-1.1116,-1.1121,-1.1123,-1.1122,-1.1123,-1.1125,-1.1148,-1.1148,-1.1147,0,-1.0545,-1.0564,-1.0628,-1.0649,-1.0677,-1.0711,-1.0737,-1.0784,-1.081,-1.0864,-1.0879,-1.0922,-1.0959,-1.102,-1.1064,-1.1106,-1.112,-1.1117,-1.1126,-1.1114,-1.112,-1.1118,-1.1121,-1.1114,-1.1114,-1.1114,-1.1113,0,-1.0529,-1.055,-1.0586,-1.063,-1.066,-1.0696,-1.0735,-1.075,-1.0805,-1.0832,-1.0873,-1.0901,-1.0957,-1.0999,-1.1047,-1.1077,-1.1104,-1.111,-1.1113,-1.1101,-1.1085,-1.1094,-1.1109,-1.111,-1.111,-1.111,-1.1111,-1.1111,-1.051,-1.053,-1.0577,-1.0616,-1.065,-1.0685,-1.0709,-1.0746,-1.0782,-1.0831,-1.0857,-1.0897,-1.0944,-1.1011,-1.104,-1.1073,-1.1082,-1.1086,-1.1088,-1.1088,-1.1085,-1.1079,-1.1082,-1.1082,-1.1082,-1.1082,-1.1082,0,-1.0496,-1.0529,-1.0564,-1.0617,-1.0647,-1.0671,-1.0715,-1.0739,-1.0774,-1.0815,-1.0851,-1.0898,-1.094,-1.0987,-1.1031,-1.1048,-1.1062,-1.1058,-1.1058,-1.1064,-1.1074,-1.1067,-1.1047,-1.1047,-1.1047,-1.1047,-1.1047,-1.1047,-1.0492,-1.0527,-1.0554,-1.0606,-1.0639,-1.0679,-1.0702,-1.0735,-1.0768,-1.082,-1.0854,-1.0885,-1.0929,-1.0977,-1.1015,-1.1028,-1.1043,-1.1036,-1.1052,-1.106,-1.1063,-1.1066,-1.106,-1.1038,-1.1038,-1.104,-1.104,-1.104]},{"header":{"parameterUnit":"m.s-1","parameterCategory":1,"la1":30.2991,"la2":30.254,"lo1":-89.0895,"lo2":-89.0444,"dy":0.0017,"dx":0.0017,"nx":28,"ny":28,"refTime":"2025-01-22T03:00:00:Z","depth":0,"parameterNumber":3,"parameterNumberName":"V-component_of_WINDS"},"data":[0,0,0,0,0,0,0,0,0,0,0,0,0,0,0,0,0,0,0,0,0,0,0,0,0,0,0,0,0,0,0,0,0,0,0,0,0,0,0,0,0,0,0,0,0,0,0,0,0,0,0,0,0,0,0,0,0,0,-0.3822,-0.3823,0,-0.3898,-0.3899,-0.39,-0.3984,-0.3985,-0.3987,-0.3988,-0.407,-0.4071,-0.4073,0,0,0,0,0,0,0,0,0,0,0,0,0,-0.3753,-0.3754,-0.3822,-0.3823,-0.3824,-0.3898,-0.3899,-0.39,-0.3984,-0.3985,-0.3987,-0.3988,-0.407,-0.4071,-0.4073,0,0,0,0,0,0,0,0,0,0,0,0,0,-0.3802,-0.3754,-0.3822,-0.3874,-0.388,-0.3898,-0.3899,-0.3901,-0.3984,-0.3985,-0.3987,-0.3989,-0.407,-0.4071,-0.4073,-0.4047,0,0,-0.4078,-0.4078,0,0,0,0,0,0,0,0,-0.3799,-0.3804,-0.3866,-0.3871,-0.3877,-0.3934,-0.3906,-0.395,-0.3983,-0.3944,-0.3988,-0.399,-0.4024,-0.4029,-0.404,-0.4051,-0.4054,-0.4078,-0.4079,-0.408,-0.408,0,0,0,0,0,0,0,-0.3795,-0.3801,-0.3853,-0.3867,-0.3874,-0.3896,-0.3905,-0.3914,-0.3973,-0.3948,-0.3954,-0.3962,-0.4027,-0.4038,-0.4042,-0.4055,-0.4078,-0.4079,-0.408,-0.4081,-0.405,-0.4048,0,0,0,0,0,0,-0.3783,-0.3798,-0.385,-0.3855,-0.3841,-0.3896,-0.3906,-0.3914,-0.3973,-0.3984,-0.396,-0.3965,-0.4034,-0.404,-0.4046,-0.4019,-0.408,-0.4081,-0.4082,-0.4051,-0.4049,-0.4047,0,0,0,0,0,0,-0.3782,-0.3787,-0.3847,-0.3828,-0.3837,-0.3895,-0.3903,-0.3914,-0.3925,-0.3982,-0.3994,-0.396,-0.4036,-0.4043,-0.4046,-0.4023,-0.4082,-0.4083,-0.4054,-0.4051,-0.4048,-0.3965,0,0,0,0,0,0,-0.3779,-0.3786,-0.3775,-0.3827,-0.3838,-0.3844,-0.3902,-0.3914,-0.3927,-0.3935,-0.3985,-0.3996,-0.4038,-0.4043,-0.4047,-0.4026,-0.4085,-0.4056,-0.4052,-0.4049,-0.397,-0.396,-0.3951,0,0,0,0,0,-0.3776,-0.375,-0.3774,-0.378,-0.3826,-0.3842,-0.3849,-0.3897,-0.3925,-0.3915,-0.3953,-0.3994,-0.4025,-0.4042,-0.4048,-0.4027,-0.4058,-0.4053,-0.4049,-0.3974,-0.3962,-0.3951,0,0,0,0,0,0,-0.3695,-0.3758,-0.3786,-0.3775,-0.3802,-0.3856,-0.3846,-0.3882,-0.3904,-0.391,-0.397,-0.3981,-0.3976,-0.4003,-0.4021,-0.4006,-0.4047,-0.4044,-0.3988,-0.3977,-0.3967,-0.3961,-0.4086,0,0,0,0,0,-0.3676,-0.3683,-0.3738,-0.3723,-0.3735,-0.3788,-0.3797,-0.3831,-0.3863,-0.3876,-0.3913,-0.3944,-0.3961,-0.3971,-0.3989,-0.3975,-0.3988,-0.3964,-0.3954,-0.3946,-0.3942,-0.3937,-0.3927,-0.4034,-0.4034,-0.4034,0,0,-0.3636,-0.3671,-0.3672,-0.3707,-0.3733,-0.374,-0.3797,-0.3802,-0.3808,-0.3877,-0.3881,-0.391,-0.3948,-0.3942,-0.3941,-0.3964,-0.3916,-0.3941,-0.3934,-0.3935,-0.3932,-0.3922,-0.3913,-0.4031,-0.4032,-0.4032,0,0,-0.3567,-0.3594,-0.3585,-0.3609,-0.3647,-0.3682,-0.368,-0.3728,-0.3749,-0.3754,-0.3806,-0.3816,-0.3843,-0.3868,-0.3885,-0.3826,-0.3865,-0.3831,-0.3781,-0.3775,-0.3766,-0.3759,-0.3738,-0.373,-0.3827,-0.3827,-0.3827,0,-0.3514,-0.3525,-0.3576,-0.3577,-0.3591,-0.3653,-0.3644,-0.3666,-0.3708,-0.3718,-0.3742,-0.3778,-0.3808,-0.3809,-0.3794,-0.3806,-0.3806,-0.3825,-0.3763,-0.3757,-0.3751,-0.3731,-0.3723,-0.3822,-0.3823,-0.3823,-0.3824,0,-0.3457,-0.3464,-0.3452,-0.3489,-0.3503,-0.3499,-0.3551,-0.3558,-0.3592,-0.3625,-0.363,-0.3669,-0.3696,-0.3699,-0.3733,-0.3705,-0.3718,-0.3752,-0.3795,-0.3735,-0.3718,-0.3711,-0.3816,-0.3818,-0.3819,-0.382,0,0,-0.3338,-0.3403,-0.3398,-0.3416,-0.3462,-0.347,-0.347,-0.3495,-0.3501,-0.3528,-0.353,-0.3553,-0.3584,-0.3603,-0.3641,-0.3635,-0.3586,-0.3671,-0.3673,-0.3653,-0.3558,-0.3532,-0.3522,-0.3613,-0.3612,-0.3611,-0.3555,0,-0.3276,-0.3278,-0.3324,-0.3314,-0.3321,-0.338,-0.3381,-0.341,-0.3441,-0.3454,-0.349,-0.3504,-0.3545,-0.3557,-0.3555,-0.3593,-0.3568,-0.3598,-0.3617,-0.3617,-0.3604,-0.3513,-0.3485,-0.343,-0.3549,-0.3548,-0.3547,0,-0.3205,-0.3226,-0.3216,-0.3263,-0.3268,-0.3267,-0.3294,-0.3305,-0.334,-0.3364,-0.3384,-0.3426,-0.3431,-0.3472,-0.3481,-0.35,-0.3511,-0.3531,-0.353,-0.3533,-0.3577,-0.3513,-0.3414,-0.3405,-0.3537,-0.3538,-0.3538,0,-0.3118,-0.3145,-0.3142,-0.3156,-0.3211,-0.3209,-0.3232,-0.3269,-0.3281,-0.3306,-0.3315,-0.3341,-0.3354,-0.3374,-0.3423,-0.3448,-0.3426,-0.3471,-0.3447,-0.3445,-0.3438,-0.3438,-0.3338,-0.3446,-0.3447,-0.3447,-0.3447,0,-0.3044,-0.3035,-0.3104,-0.3102,-0.3094,-0.3149,-0.314,-0.317,-0.3202,-0.3208,-0.3262,-0.3267,-0.3331,-0.3344,-0.3383,-0.3384,-0.339,-0.341,-0.342,-0.3405,-0.3402,-0.3412,-0.3417,-0.3445,-0.3445,-0.3445,-0.3446,0,-0.2946,-0.2991,-0.2992,-0.3044,-0.3057,-0.3048,-0.3094,-0.3095,-0.313,-0.3137,-0.3142,-0.3198,-0.3216,-0.3266,-0.3298,-0.3324,-0.3314,-0.3334,-0.3301,-0.3308,-0.328,-0.3282,-0.3183,-0.3173,-0.3287,-0.3286,-0.3285,0,-0.2895,-0.2889,-0.294,-0.2947,-0.2968,-0.2979,-0.2991,-0.3045,-0.3057,-0.3097,-0.3093,-0.3115,-0.3135,-0.3162,-0.3206,-0.3231,-0.3251,-0.3215,-0.3255,-0.324,-0.325,-0.325,-0.325,-0.3206,-0.3204,-0.3203,-0.3202,0,-0.28,-0.2823,-0.2838,-0.2862,-0.2875,-0.2896,-0.2921,-0.2924,-0.2985,-0.2995,-0.3013,-0.3029,-0.3061,-0.3082,-0.3114,-0.314,-0.3181,-0.3189,-0.3185,-0.3168,-0.3149,-0.3159,-0.3277,-0.3191,-0.3192,-0.3193,-0.3193,-0.3194,-0.2724,-0.2722,-0.2757,-0.2773,-0.2797,-0.2818,-0.2822,-0.2857,-0.2872,-0.2901,-0.2933,-0.2947,-0.2984,-0.3031,-0.3054,-0.3068,-0.309,-0.3083,-0.3081,-0.3079,-0.3071,-0.3148,-0.3074,-0.3074,-0.3075,-0.3075,-0.3075,0,-0.2632,-0.2657,-0.2671,-0.2703,-0.2716,-0.2752,-0.2782,-0.279,-0.2801,-0.2832,-0.285,-0.2871,-0.2893,-0.2939,-0.2965,-0.2967,-0.2986,-0.2972,-0.2972,-0.2977,-0.3051,-0.3051,-0.2955,-0.2955,-0.2955,-0.2955,-0.2955,-0.2955,-0.2585,-0.2583,-0.261,-0.2621,-0.2648,-0.2661,-0.2674,-0.2695,-0.272,-0.274,-0.2757,-0.2787,-0.2824,-0.2853,-0.2875,-0.2888,-0.2895,-0.2874,-0.2893,-0.2961,-0.2972,-0.2983,-0.2984,-0.2875,-0.2875,-0.2819,-0.2818,-0.2818]}]]